Weather History for Beauvais, France

Change the Weather History Date:

Thursday, July 4, 2013

  Actual Average Record
Temperature  
Mean Temperature 58 °F -  
Max Temperature 68 °F 72 °F 84 °F (2001)
Min Temperature 48 °F 53 °F 44 °F (2008)
Degree Days  
Heating Degree Days 7    
Growing Degree Days 8 (Base 50)    
Moisture  
Dew Point 55 °F    
Average Humidity 85    
Maximum Humidity 100    
Minimum Humidity 72    
Precipitation  
Precipitation 0.00 in - - ()
Sea Level Pressure  
Sea Level Pressure 30.19 in    
Wind  
Wind Speed 5 mph ()    
Max Wind Speed 10 mph    
Max Gust Speed -    
Visibility 6.2 miles    
Events Fog    
Averages and records for this station are not official NWS values.
T = Trace of Precipitation, MM = Missing Value Source: Averaged Metar Reports

Daily Weather History Graph

Daily Weather History Graph

Search for Another Location

Airport:

Trip Planner

Search our weather history database for the weather conditions in past years. The results will help you decide how hot, cold, wet, or windy it might be!

Date:

Astronomy

Jul. 04, 2013 Rise Set
Actual Time 5:51 AM CEST 10:00 PM CEST
Civil Twilight 5:08 AM CEST 10:42 PM CEST
Nautical Twilight 4:07 AM CEST 11:43 PM CEST
Astronomical Twilight 2:28 AM CEST 1:23 AM CEST
Moon 3:07 AM CEST (7/4) 6:43 PM CEST (7/4)
Length of Visible Light 17h 34m
Length of Day
16h 08m
Waning Crescent, 13% of the Moon is Illuminated
Jul 4
Waning Crescent
Jul 8
New
Jul 16
First Quarter
Jul 22
Full
Jul 29
Last Quarter

Hourly Weather History & Observations

Time (CEST) Temp. Dew Point Humidity Pressure Visibility Wind Dir Wind Speed Gust Speed Precip Events Conditions
12:00 AM 55.4 °F 51.8 °F 88% 30.06 in 6.2 mi WSW 5.8 mph - N/A   Unknown
12:30 AM 53.6 °F 51.8 °F 94% 30.09 in 6.2 mi West 3.5 mph - N/A   Unknown
1:00 AM 53.6 °F 50.0 °F 88% 30.09 in 6.2 mi WSW 4.6 mph - N/A   Unknown
1:30 AM 51.8 °F 50.0 °F 94% 30.09 in 6.2 mi West 3.5 mph - N/A   Unknown
2:00 AM 51.8 °F 50.0 °F 94% 30.09 in 6.2 mi WSW 3.5 mph - N/A   Unknown
2:30 AM 51.8 °F 50.0 °F 94% 30.09 in 6.2 mi WSW 4.6 mph - N/A   Unknown
3:00 AM 51.8 °F 50.0 °F 94% 30.09 in 6.2 mi WSW 3.5 mph - N/A   Unknown
3:30 AM 50.0 °F 50.0 °F 100% 30.09 in 6.2 mi SW 3.5 mph - N/A   Unknown
4:00 AM 50.0 °F 50.0 °F 100% 30.09 in 6.2 mi West 3.5 mph - N/A   Unknown
4:30 AM 50.0 °F 50.0 °F 100% 30.12 in 6.2 mi WSW 2.3 mph - N/A   Unknown
5:00 AM 50.0 °F 48.2 °F 94% 30.12 in 5.6 mi West 4.6 mph - N/A   Unknown
5:30 AM 50.0 °F 48.2 °F 94% 30.12 in 5.6 mi West 3.5 mph - N/A   Unknown
6:00 AM 48.2 °F 48.2 °F 100% 30.12 in 6.2 mi West 2.3 mph - N/A Fog Fog
6:30 AM 50.0 °F 48.2 °F 94% 30.12 in 6.2 mi Calm Calm - N/A   Unknown
7:00 AM 50.0 °F 50.0 °F 100% 30.15 in 5.6 mi Calm Calm - N/A   Scattered Clouds
7:30 AM 55.4 °F 53.6 °F 94% 30.15 in 6.2 mi WSW 4.6 mph - N/A   Overcast
8:00 AM 55.4 °F 53.6 °F 94% 30.15 in 6.2 mi West 4.6 mph - N/A   Overcast
8:30 AM 55.4 °F 53.6 °F 94% 30.18 in 6.2 mi WSW 4.6 mph - N/A   Overcast
9:00 AM 57.2 °F 53.6 °F 88% 30.18 in 6.2 mi SW 6.9 mph - N/A   Overcast
9:30 AM 59.0 °F 53.6 °F 82% 30.18 in 6.2 mi WSW 8.1 mph - N/A   Overcast
10:00 AM 59.0 °F 53.6 °F 82% 30.18 in 6.2 mi WSW 9.2 mph - N/A   Overcast
10:30 AM 60.8 °F 53.6 °F 77% 30.18 in 6.2 mi WSW 8.1 mph - N/A   Overcast
11:00 AM 60.8 °F 53.6 °F 77% 30.21 in 6.2 mi SW 9.2 mph - N/A   Overcast
11:30 AM 60.8 °F 53.6 °F 77% 30.21 in 6.2 mi SW 8.1 mph - N/A   Overcast
12:00 PM 62.6 °F 53.6 °F 72% 30.21 in 6.2 mi SSW 8.1 mph - N/A   Overcast
12:30 PM 62.6 °F 55.4 °F 77% 30.21 in 6.2 mi SW 8.1 mph - N/A   Overcast
1:00 PM 62.6 °F 55.4 °F 77% 30.21 in 6.2 mi SW 10.4 mph - N/A   Overcast
1:30 PM 64.4 °F 55.4 °F 73% 30.21 in 6.2 mi SSW 8.1 mph - N/A   Overcast
2:00 PM 64.4 °F 57.2 °F 77% 30.21 in 6.2 mi West 9.2 mph - N/A   Overcast
2:30 PM 64.4 °F 57.2 °F 77% 30.21 in 6.2 mi West 10.4 mph - N/A   Overcast
3:00 PM 64.4 °F 57.2 °F 77% 30.21 in 6.2 mi WSW 8.1 mph - N/A   Overcast
3:30 PM 66.2 °F 57.2 °F 73% 30.24 in 6.2 mi WSW 9.2 mph - N/A   Overcast
4:00 PM 66.2 °F 59.0 °F 78% 30.24 in 6.2 mi WSW 8.1 mph - N/A   Overcast
4:30 PM 66.2 °F 59.0 °F 78% 30.24 in 6.2 mi West 9.2 mph - N/A   Overcast
5:00 PM 66.2 °F 59.0 °F 78% 30.24 in 6.2 mi WSW 6.9 mph - N/A   Overcast
5:30 PM 66.2 °F 60.8 °F 83% 30.24 in 6.2 mi WSW 9.2 mph - N/A   Overcast
6:00 PM 66.2 °F 60.8 °F 83% 30.24 in 6.2 mi West 5.8 mph - N/A   Overcast
6:30 PM 66.2 °F 60.8 °F 83% 30.24 in 6.2 mi West 5.8 mph - N/A   Overcast
7:00 PM 68.0 °F 60.8 °F 78% 30.24 in 6.2 mi WSW 4.6 mph - N/A   Mostly Cloudy
7:30 PM 68.0 °F 60.8 °F 78% 30.24 in 6.2 mi SW 5.8 mph - N/A   Overcast
8:00 PM 68.0 °F 60.8 °F 78% 30.24 in 6.2 mi West 4.6 mph - N/A   Mostly Cloudy
8:30 PM 68.0 °F 60.8 °F 78% 30.24 in 6.2 mi Variable 2.3 mph - N/A   Mostly Cloudy
9:00 PM 68.0 °F 59.0 °F 73% 30.27 in 6.2 mi West 5.8 mph - N/A   Mostly Cloudy
9:30 PM 64.4 °F 57.2 °F 77% 30.27 in 6.2 mi WNW 5.8 mph - N/A   Scattered Clouds
10:00 PM 60.8 °F 57.2 °F 88% 30.27 in 6.2 mi NW 6.9 mph - N/A   Partly Cloudy
10:30 PM 60.8 °F 57.2 °F 88% 30.30 in 6.2 mi Variable 3.5 mph - N/A   Unknown
11:00 PM 59.0 °F 55.4 °F 88% 30.30 in 6.2 mi Calm Calm - N/A   Unknown
11:30 PM 57.2 °F 53.6 °F 88% 30.30 in 6.2 mi Calm Calm - N/A   Unknown